SCP
0 1 1 2 1 0 0 0 0 0 0 0 0 0 0 0 0 0 0 0 0 0 1 0 0 0 0 0 0 0 0 0 0 0 0 0 0 0 0 0 0 0 0
0 0 1 1 0 0 0 0 0 0 0 0 0 0 0 0 0 0 0 0 0 0 0 0 0 0 0 0 0 0 0 0 0 0 0 0 0 0 0 0 0 0 0
0 0 0 1 1 0 0 0 0 0 0 0 0 0 0 0 0 0 0 0 0 0 0 0 0 0 0 0 0 0 0 0 0 0 0 0 0 0 0 0 0 0 0
0 0 1 1 1 0 0 0 0 0 0 0 0 0 -0 0 0 0 0 0 0 0 0 0 0 0 0 0 0 0 0 0 0 0 0 0 0 0 0 0 0 0 0
0 0 1 1 1 1 0 0 0 0 0 0 0 0 0 0 0 0 0 0 0 0 0 0 0 0 0 0 0 0 0 0 0 0 0 0 0 0 0 0 0 0 0
0 0 0 1 0 0 0 0 0 0 0 0 0 0 0 0 0 0 0 0 0 0 0 0 0 0 0 0 0 0 0 0 0 0 0 0 0 0 0 0 0 0 0
0 -0 0 0 0 1 0 0 0 0 0 0 0 0 0 0 0 0 0 0 0 0 0 0 0 0 0 0 0 0 0 0 0 0 0 0 0 0 0 0 0 0 0
-0 -0 -0 0 0 0 0 0 0 0 0 0 0 0 0 0 0 0 0 0 0 0 0 0 0 0 0 0 0 0 0 0 0 0 0 0 0 0 0 0 0 0 0
-0 -0 -0 -0 0 0 0 0 0 0 0 0 0 0 0 0 0 0 0 0 0 0 0 0 0 0 0 0 0 0 0 0 0 0 0 0 0 0 0 0 0 0 0
-0 -0 -0 -0 -0 0 0 0 0 0 0 0 0 0 0 0 0 0 0 0 0 0 0 0 0 0 0 0 0 0 0 0 0 0 0 0 0 0 0 0 -0 0 0
-0 -0 -0 -0 -0 0 0 0 0 0 0 0 0 0 0 0 0 0 0 0 0 0 0 0 0 0 0 0 0 0 0 0 0 0 0 0 0 0 0 0 0 0 0
-0 -0 -0 -0 -0 0 0 0 0 0 0 0 0 0 0 0 0 0 0 0 0 0 0 0 0 0 0 0 0 0 0 0 0 0 0 0 0 0 0 0 0 0 0
-0 -0 -0 -0 -0 -0 0 0 0 0 0 0 0 0 0 0 0 0 0 0 0 0 0 0 0 0 0 0 0 0 0 0 0 0 0 0 0 0 0 0 0 0 0
-0 -0 -0 -0 -0 -0 -0 0 0 0 0 0 0 0 0 0 0 0 0 0 0 0 0 0 0 0 0 0 0 0 0 0 0 0 0 0 0 0 0 0 0 0 0
0 -0 -0 -0 -0 -0 -0 0 0 0 0 0 0 0 0 0 0 0 0 0 0 0 0 0 0 0 0 0 0 0 0 0 0 0 0 0 0 0 0 0 0 0 0
0 0 -0 -0 -0 -0 -0 -0 0 0 0 0 0 0 0 0 0 0 0 0 0 0 0 0 0 0 0 0 0 0 0 0 0 0 0 0 0 0 0 0 0 0 0
0 0 -0 -0 -0 -0 -0 -0 0 0 0 0 0 0 0 0 0 0 0 0 0 0 0 0 0 0 0 0 0 0 0 0 0 0 0 0 0 0 0 0 0 0 0
0 0 0 0 -0 -0 -0 -0 0 0 0 0 0 0 0 0 0 0 0 0 0 0 0 0 0 0 0 0 0 0 0 0 0 0 0 0 0 0 0 0 0 0 0
0 0 0 0 -0 -0 -0 -0 -0 0 0 0 0 0 0 0 0 0 0 0 0 0 0 0 0 0 0 0 0 0 0 0 0 0 0 0 0 0 0 0 0 0 0
0 0 0 0 0 -0 -0 0 -0 0 0 0 0 0 0 0 0 0 0 0 0 0 0 0 0 0 0 0 0 0 0 0 0 0 0 0 0 0 0 0 0 0 0
0 -0 -0 -0 0 -0 -0 -0 -0 -0 0 0 0 0 0 0 0 0 0 0 0 0 0 0 0 0 0 0 0 0 0 0 0 0 0 0 0 0 0 0 0 0 0
-0 0 0 -0 -0 -0 -0 0 0 -0 0 0 0 0 0 0 0 0 0 0 0 0 0 0 0 0 0 0 0 0 0 0 0 0 0 0 0 0 0 0 0 0 0
-0 0 0 0 -0 -0 0 0 0 0 0 0 0 0 0 0 0 0 0 0 0 0 0 0 0 0 0 0 0 0 0 0 0 0 0 0 0 0 0 0 0 0 0
-0 0 0 0 -0 -0 -0 0 0 0 -0 0 0 0 0 0 0 0 0 0 0 0 0 0 0 0 0 0 0 0 0 0 0 0 0 0 0 0 0 0 0 0 0
0 0 0 0 0 -0 -0 0 0 0 0 0 0 0 0 0 0 0 0 0 0 0 0 0 0 0 0 0 0 0 0 0 0 0 0 0 0 0 0 0 0 0 0
0 0 0 0 0 0 -0 0 0 0 0 0 0 0 0 0 0 0 0 0 0 0 0 0 0 0 0 0 0 0 0 0 0 0 0 0 0 0 0 0 0 0 0
Wind_Speed_500mb
74 77 72 77 73 67 62 61 55 60 74 76 81 83 75 75 71 68 64 58 63 78 86 81 71 60 51 43 47 47 44 46 46 41 34 34 36 43 40 42 39 36 30
82 77 75 73 76 70 66 62 62 65 73 64 67 74 72 75 74 72 70 66 70 62 81 81 70 60 51 45 49 58 52 48 46 41 43 46 45 45 43 39 35 34 31
85 85 79 77 80 76 71 66 65 63 74 67 57 28 14 52 63 65 58 67 73 64 64 68 67 59 54 51 59 60 59 53 46 47 48 49 47 42 39 38 37 37 35
80 85 84 86 86 82 78 72 70 67 75 77 66 53 37 39 35 48 57 62 67 69 62 61 58 56 54 66 67 62 56 53 57 57 52 48 42 41 40 41 40 39 40
67 82 84 87 95 101 88 83 80 85 89 89 87 68 74 79 87 65 54 65 67 67 57 59 63 65 69 67 65 59 55 60 57 54 48 46 44 43 44 43 43 41 43
69 63 80 94 94 122 98 90 88 89 82 77 76 74 75 82 81 87 84 46 66 70 60 70 75 74 68 61 57 57 57 58 57 53 52 49 48 48 47 46 45 44 43
75 84 61 76 98 86 99 92 85 92 85 84 83 79 80 81 78 79 97 96 48 50 66 70 74 69 59 58 54 56 58 58 56 54 54 54 54 51 49 48 44 41 38
83 89 96 78 90 105 90 92 98 99 97 100 97 76 53 68 75 72 69 84 89 69 58 67 71 68 63 52 55 60 58 56 57 58 58 58 56 51 48 45 40 36 31
93 83 82 109 75 94 107 118 113 110 108 101 103 93 48 32 70 79 68 67 80 82 65 66 73 69 65 59 57 59 59 58 60 62 61 58 54 51 46 42 34 25 26
79 83 57 98 101 75 88 110 123 113 108 105 106 98 76 74 83 48 75 66 79 79 79 85 79 70 65 67 61 60 61 60 61 60 58 56 51 48 40 27 28 36 33
76 82 75 63 95 80 88 106 108 105 120 114 124 99 73 58 87 80 73 80 76 80 93 95 89 82 73 69 75 64 60 61 59 56 53 49 43 37 32 40 35 34 34
76 75 83 66 73 105 71 91 111 109 125 122 122 131 105 78 88 85 80 89 95 93 103 107 96 89 83 79 77 70 65 59 57 53 49 46 43 43 46 43 37 36 35
71 77 82 59 66 73 80 74 113 106 131 123 122 131 122 107 88 93 84 85 94 95 94 108 102 95 86 84 81 74 70 56 63 48 52 44 38 41 41 39 36 36 35
74 76 76 76 64 72 85 92 99 120 104 136 129 125 125 107 104 106 104 100 83 88 89 100 105 94 88 86 82 76 72 61 64 51 54 46 42 41 38 39 40 40 36
60 75 79 84 72 61 51 78 25 122 107 102 125 130 131 109 114 112 112 117 99 75 78 85 98 97 94 89 85 79 71 67 58 61 60 53 47 45 43 45 43 41 39
57 62 76 78 73 64 63 68 92 76 110 108 124 128 131 122 114 104 110 111 99 90 69 95 106 103 96 90 85 82 77 69 68 62 63 57 55 50 49 46 43 45 45
67 53 65 81 71 61 63 56 64 52 108 114 120 133 133 124 104 111 106 105 112 105 88 90 96 97 98 92 87 81 77 77 73 71 67 63 59 54 51 49 51 49 52
71 60 43 65 64 60 58 53 54 76 100 131 120 129 139 137 116 113 103 106 108 105 104 93 90 100 96 93 86 85 81 75 71 71 68 63 59 57 56 55 56 57 54
75 71 54 43 66 61 56 53 51 64 82 125 143 132 136 138 128 117 109 111 107 114 101 99 106 98 97 93 88 83 77 73 71 66 65 60 59 59 59 61 59 58 57
69 78 76 51 46 55 60 57 51 61 47 120 130 132 133 139 135 118 118 117 109 107 110 89 96 101 101 98 95 93 81 75 74 71 69 67 65 63 62 63 63 60 56
70 75 87 87 59 57 64 51 59 47 54 117 110 122 132 137 140 133 129 119 111 105 99 103 96 93 93 100 102 92 87 85 79 80 77 75 72 73 73 69 65 62 58
73 76 79 90 93 74 76 64 55 54 93 95 130 129 133 136 144 135 137 129 126 115 112 104 103 99 100 96 103 108 103 96 86 83 84 84 81 84 79 77 72 68 64
68 71 75 82 97 96 88 88 65 63 79 82 129 136 133 137 134 140 136 121 115 113 119 122 121 109 98 96 101 114 113 106 106 103 100 94 93 89 83 79 74 71 67
72 67 75 72 80 80 91 94 80 73 90 69 132 136 139 138 136 136 130 125 113 109 109 111 109 105 95 92 99 114 117 111 105 99 105 103 101 96 90 84 78 74 73
68 65 69 69 57 77 82 95 77 79 81 77 125 131 138 134 132 133 129 123 123 113 104 100 99 93 85 80 85 108 102 105 83 84 101 100 108 103 97 90 84 80 79
62 56 64 58 64 57 81 85 70 75 68 90 130 134 139 134 138 140 130 128 129 115 108 109 102 94 83 76 82 89 101 106 110 83 93 104 96 104 87 98 89 89 90
Wind_Direction_500mb
262 257 252 250 246 244 239 234 231 216 214 218 216 214 211 200 193 194 195 194 201 200 188 181 179 180 188 190 183 179 182 180 181 188 183 163 148 137 138 136 135 133 127
266 260 253 246 244 242 233 231 230 219 213 209 204 192 188 192 196 196 200 195 200 189 180 178 178 184 193 201 179 170 172 169 180 188 163 149 142 143 145 139 135 132 127
269 263 256 244 240 240 231 225 224 219 217 203 181 183 268 174 190 193 193 196 197 197 190 186 180 183 191 194 169 174 171 159 165 160 159 150 155 154 146 141 139 135 129
270 267 259 249 237 235 229 220 216 213 203 198 207 222 243 240 173 183 191 193 197 189 180 177 182 184 179 168 172 173 171 162 155 157 157 160 157 152 149 145 142 137 127
277 267 257 249 242 232 223 220 216 211 215 221 226 229 217 218 236 221 199 185 187 188 182 180 174 174 169 170 170 172 171 163 164 164 166 159 157 155 150 145 141 135 129
288 278 264 254 249 217 213 214 217 217 222 226 220 210 208 212 210 204 201 197 181 184 183 180 172 168 169 174 174 169 162 165 167 168 163 160 157 154 149 144 140 135 130
286 282 280 267 257 232 221 210 215 212 212 210 194 193 196 196 195 198 199 211 205 180 183 178 167 168 174 176 171 166 166 167 169 166 163 158 156 153 150 144 141 138 134
295 302 269 285 256 236 216 218 209 201 201 195 186 181 169 186 193 197 198 208 202 191 187 178 171 171 173 176 180 175 172 170 169 165 161 158 157 155 149 144 143 136 135
302 306 275 270 299 243 215 211 207 199 194 197 197 187 167 179 187 193 192 190 196 203 205 196 186 185 184 189 186 183 176 171 169 166 164 162 159 155 152 148 152 158 155
295 302 299 271 273 279 244 205 205 202 204 194 197 194 198 195 178 180 200 194 204 201 203 192 187 185 188 189 185 184 175 171 170 167 165 164 160 158 156 167 167 157 157
291 298 305 284 277 279 262 205 198 203 205 197 196 186 187 186 188 179 179 197 201 206 198 189 192 191 193 198 183 182 176 172 170 167 168 166 165 170 175 171 177 179 178
289 284 295 302 266 271 299 232 205 207 199 204 198 197 197 182 185 183 182 189 194 193 192 191 191 186 187 190 184 184 182 176 175 172 173 172 174 176 181 189 191 190 193
286 284 294 300 280 278 275 250 204 205 204 204 200 201 198 193 196 188 179 176 181 185 191 180 184 187 187 186 188 189 189 195 187 189 182 184 186 191 196 202 203 206 205
286 281 286 294 300 283 273 285 233 207 206 198 203 200 196 194 194 191 188 181 174 174 187 179 186 190 193 192 195 196 193 198 190 195 196 200 203 206 209 211 210 209 207
299 285 289 291 302 289 269 264 297 204 208 198 199 200 202 190 196 197 200 195 179 175 184 187 191 192 196 196 197 200 202 206 201 204 208 211 215 213 215 215 213 211 207
295 290 279 284 295 291 287 267 267 257 200 200 198 198 197 190 193 195 203 210 206 190 182 191 194 196 194 196 198 203 207 209 213 215 216 218 221 217 216 217 213 208 206
280 291 276 280 289 293 285 261 262 237 205 200 194 197 198 192 189 195 201 208 207 205 203 201 199 198 200 200 199 203 207 213 217 220 221 219 218 217 216 211 212 206 197
277 272 287 268 270 277 294 263 253 264 210 203 205 196 201 195 191 197 198 207 209 200 200 198 198 196 201 202 205 209 211 215 218 220 217 213 212 212 210 209 207 202 200
273 261 264 280 272 276 287 274 259 247 216 195 198 195 199 201 198 204 202 207 205 207 202 204 200 203 202 204 205 210 211 215 216 215 211 208 208 208 209 208 202 203 205
285 265 255 259 269 272 271 277 262 232 245 198 198 206 204 208 206 202 197 202 202 201 202 205 209 205 206 202 207 209 206 210 206 203 204 202 204 207 206 204 204 206 210
286 281 259 251 252 258 267 276 259 265 267 205 202 204 210 211 206 207 201 200 203 202 204 204 210 206 203 199 200 204 208 203 200 202 199 200 200 202 203 204 205 209 214
286 289 269 254 252 251 258 267 269 274 232 213 202 200 206 211 208 210 211 215 212 204 203 207 210 209 209 212 211 209 206 194 191 200 204 203 202 205 205 206 207 211 212
277 281 278 255 250 247 253 263 269 274 227 221 206 200 200 210 210 213 211 212 214 216 219 219 218 216 215 213 212 206 207 207 207 204 200 202 203 206 208 209 211 213 212
281 272 277 265 250 251 254 259 265 272 230 238 204 205 203 205 209 212 208 206 211 215 218 224 228 227 220 217 216 213 206 201 205 205 202 201 205 208 208 211 212 214 214
279 263 270 268 252 244 250 254 260 265 231 229 204 210 205 208 210 210 208 205 210 213 219 225 228 227 228 225 225 210 203 203 201 206 204 208 205 207 209 210 210 212 214
283 266 268 256 240 238 242 252 254 256 233 216 204 209 214 213 210 208 208 210 211 211 211 213 216 220 223 224 226 224 221 208 207 204 208 206 211 210 208 212 211 212 212
Wind_Speed_850mb
74 77 72 77 73 67 62 61 55 60 74 76 81 83 75 75 71 68 64 58 63 78 86 81 71 60 51 43 47 47 44 46 46 41 34 34 36 43 40 42 39 36 30
82 77 75 73 76 70 66 62 62 65 73 64 67 74 72 75 74 72 70 66 70 62 81 81 70 60 51 45 49 58 52 48 46 41 43 46 45 45 43 39 35 34 31
85 85 79 77 80 76 71 66 65 63 74 67 57 28 14 52 63 65 58 67 73 64 64 68 67 59 54 51 59 60 59 53 46 47 48 49 47 42 39 38 37 37 35
80 85 84 86 86 82 78 72 70 67 75 77 66 53 37 39 35 48 57 62 67 69 62 61 58 56 54 66 67 62 56 53 57 57 52 48 42 41 40 41 40 39 40
67 82 84 87 95 101 88 83 80 85 89 89 87 68 74 79 87 65 54 65 67 67 57 59 63 65 69 67 65 59 55 60 57 54 48 46 44 43 44 43 43 41 43
69 63 80 94 94 122 98 90 88 89 82 77 76 74 75 82 81 87 84 46 66 70 60 70 75 74 68 61 57 57 57 58 57 53 52 49 48 48 47 46 45 44 43
75 84 61 76 98 86 99 92 85 92 85 84 83 79 80 81 78 79 97 96 48 50 66 70 74 69 59 58 54 56 58 58 56 54 54 54 54 51 49 48 44 41 38
83 89 96 78 90 105 90 92 98 99 97 100 97 76 53 68 75 72 69 84 89 69 58 67 71 68 63 52 55 60 58 56 57 58 58 58 56 51 48 45 40 36 31
93 83 82 109 75 94 107 118 113 110 108 101 103 93 48 32 70 79 68 67 80 82 65 66 73 69 65 59 57 59 59 58 60 62 61 58 54 51 46 42 34 25 26
79 83 57 98 101 75 88 110 123 113 108 105 106 98 76 74 83 48 75 66 79 79 79 85 79 70 65 67 61 60 61 60 61 60 58 56 51 48 40 27 28 36 33
76 82 75 63 95 80 88 106 108 105 120 114 124 99 73 58 87 80 73 80 76 80 93 95 89 82 73 69 75 64 60 61 59 56 53 49 43 37 32 40 35 34 34
76 75 83 66 73 105 71 91 111 109 125 122 122 131 105 78 88 85 80 89 95 93 103 107 96 89 83 79 77 70 65 59 57 53 49 46 43 43 46 43 37 36 35
71 77 82 59 66 73 80 74 113 106 131 123 122 131 122 107 88 93 84 85 94 95 94 108 102 95 86 84 81 74 70 56 63 48 52 44 38 41 41 39 36 36 35
74 76 76 76 64 72 85 92 99 120 104 136 129 125 125 107 104 106 104 100 83 88 89 100 105 94 88 86 82 76 72 61 64 51 54 46 42 41 38 39 40 40 36
60 75 79 84 72 61 51 78 25 122 107 102 125 130 131 109 114 112 112 117 99 75 78 85 98 97 94 89 85 79 71 67 58 61 60 53 47 45 43 45 43 41 39
57 62 76 78 73 64 63 68 92 76 110 108 124 128 131 122 114 104 110 111 99 90 69 95 106 103 96 90 85 82 77 69 68 62 63 57 55 50 49 46 43 45 45
67 53 65 81 71 61 63 56 64 52 108 114 120 133 133 124 104 111 106 105 112 105 88 90 96 97 98 92 87 81 77 77 73 71 67 63 59 54 51 49 51 49 52
71 60 43 65 64 60 58 53 54 76 100 131 120 129 139 137 116 113 103 106 108 105 104 93 90 100 96 93 86 85 81 75 71 71 68 63 59 57 56 55 56 57 54
75 71 54 43 66 61 56 53 51 64 82 125 143 132 136 138 128 117 109 111 107 114 101 99 106 98 97 93 88 83 77 73 71 66 65 60 59 59 59 61 59 58 57
69 78 76 51 46 55 60 57 51 61 47 120 130 132 133 139 135 118 118 117 109 107 110 89 96 101 101 98 95 93 81 75 74 71 69 67 65 63 62 63 63 60 56
70 75 87 87 59 57 64 51 59 47 54 117 110 122 132 137 140 133 129 119 111 105 99 103 96 93 93 100 102 92 87 85 79 80 77 75 72 73 73 69 65 62 58
73 76 79 90 93 74 76 64 55 54 93 95 130 129 133 136 144 135 137 129 126 115 112 104 103 99 100 96 103 108 103 96 86 83 84 84 81 84 79 77 72 68 64
68 71 75 82 97 96 88 88 65 63 79 82 129 136 133 137 134 140 136 121 115 113 119 122 121 109 98 96 101 114 113 106 106 103 100 94 93 89 83 79 74 71 67
72 67 75 72 80 80 91 94 80 73 90 69 132 136 139 138 136 136 130 125 113 109 109 111 109 105 95 92 99 114 117 111 105 99 105 103 101 96 90 84 78 74 73
68 65 69 69 57 77 82 95 77 79 81 77 125 131 138 134 132 133 129 123 123 113 104 100 99 93 85 80 85 108 102 105 83 84 101 100 108 103 97 90 84 80 79
62 56 64 58 64 57 81 85 70 75 68 90 130 134 139 134 138 140 130 128 129 115 108 109 102 94 83 76 82 89 101 106 110 83 93 104 96 104 87 98 89 89 90
Wind_Direction_850mb
262 257 252 250 246 244 239 234 231 216 214 218 216 214 211 200 193 194 195 194 201 200 188 181 179 180 188 190 183 179 182 180 181 188 183 163 148 137 138 136 135 133 127
266 260 253 246 244 242 233 231 230 219 213 209 204 192 188 192 196 196 200 195 200 189 180 178 178 184 193 201 179 170 172 169 180 188 163 149 142 143 145 139 135 132 127
269 263 256 244 240 240 231 225 224 219 217 203 181 183 268 174 190 193 193 196 197 197 190 186 180 183 191 194 169 174 171 159 165 160 159 150 155 154 146 141 139 135 129
270 267 259 249 237 235 229 220 216 213 203 198 207 222 243 240 173 183 191 193 197 189 180 177 182 184 179 168 172 173 171 162 155 157 157 160 157 152 149 145 142 137 127
277 267 257 249 242 232 223 220 216 211 215 221 226 229 217 218 236 221 199 185 187 188 182 180 174 174 169 170 170 172 171 163 164 164 166 159 157 155 150 145 141 135 129
288 278 264 254 249 217 213 214 217 217 222 226 220 210 208 212 210 204 201 197 181 184 183 180 172 168 169 174 174 169 162 165 167 168 163 160 157 154 149 144 140 135 130
286 282 280 267 257 232 221 210 215 212 212 210 194 193 196 196 195 198 199 211 205 180 183 178 167 168 174 176 171 166 166 167 169 166 163 158 156 153 150 144 141 138 134
295 302 269 285 256 236 216 218 209 201 201 195 186 181 169 186 193 197 198 208 202 191 187 178 171 171 173 176 180 175 172 170 169 165 161 158 157 155 149 144 143 136 135
302 306 275 270 299 243 215 211 207 199 194 197 197 187 167 179 187 193 192 190 196 203 205 196 186 185 184 189 186 183 176 171 169 166 164 162 159 155 152 148 152 158 155
295 302 299 271 273 279 244 205 205 202 204 194 197 194 198 195 178 180 200 194 204 201 203 192 187 185 188 189 185 184 175 171 170 167 165 164 160 158 156 167 167 157 157
291 298 305 284 277 279 262 205 198 203 205 197 196 186 187 186 188 179 179 197 201 206 198 189 192 191 193 198 183 182 176 172 170 167 168 166 165 170 175 171 177 179 178
289 284 295 302 266 271 299 232 205 207 199 204 198 197 197 182 185 183 182 189 194 193 192 191 191 186 187 190 184 184 182 176 175 172 173 172 174 176 181 189 191 190 193
286 284 294 300 280 278 275 250 204 205 204 204 200 201 198 193 196 188 179 176 181 185 191 180 184 187 187 186 188 189 189 195 187 189 182 184 186 191 196 202 203 206 205
286 281 286 294 300 283 273 285 233 207 206 198 203 200 196 194 194 191 188 181 174 174 187 179 186 190 193 192 195 196 193 198 190 195 196 200 203 206 209 211 210 209 207
299 285 289 291 302 289 269 264 297 204 208 198 199 200 202 190 196 197 200 195 179 175 184 187 191 192 196 196 197 200 202 206 201 204 208 211 215 213 215 215 213 211 207
295 290 279 284 295 291 287 267 267 257 200 200 198 198 197 190 193 195 203 210 206 190 182 191 194 196 194 196 198 203 207 209 213 215 216 218 221 217 216 217 213 208 206
280 291 276 280 289 293 285 261 262 237 205 200 194 197 198 192 189 195 201 208 207 205 203 201 199 198 200 200 199 203 207 213 217 220 221 219 218 217 216 211 212 206 197
277 272 287 268 270 277 294 263 253 264 210 203 205 196 201 195 191 197 198 207 209 200 200 198 198 196 201 202 205 209 211 215 218 220 217 213 212 212 210 209 207 202 200
273 261 264 280 272 276 287 274 259 247 216 195 198 195 199 201 198 204 202 207 205 207 202 204 200 203 202 204 205 210 211 215 216 215 211 208 208 208 209 208 202 203 205
285 265 255 259 269 272 271 277 262 232 245 198 198 206 204 208 206 202 197 202 202 201 202 205 209 205 206 202 207 209 206 210 206 203 204 202 204 207 206 204 204 206 210
286 281 259 251 252 258 267 276 259 265 267 205 202 204 210 211 206 207 201 200 203 202 204 204 210 206 203 199 200 204 208 203 200 202 199 200 200 202 203 204 205 209 214
286 289 269 254 252 251 258 267 269 274 232 213 202 200 206 211 208 210 211 215 212 204 203 207 210 209 209 212 211 209 206 194 191 200 204 203 202 205 205 206 207 211 212
277 281 278 255 250 247 253 263 269 274 227 221 206 200 200 210 210 213 211 212 214 216 219 219 218 216 215 213 212 206 207 207 207 204 200 202 203 206 208 209 211 213 212
281 272 277 265 250 251 254 259 265 272 230 238 204 205 203 205 209 212 208 206 211 215 218 224 228 227 220 217 216 213 206 201 205 205 202 201 205 208 208 211 212 214 214
279 263 270 268 252 244 250 254 260 265 231 229 204 210 205 208 210 210 208 205 210 213 219 225 228 227 228 225 225 210 203 203 201 206 204 208 205 207 209 210 210 212 214
283 266 268 256 240 238 242 252 254 256 233 216 204 209 214 213 210 208 208 210 211 211 211 213 216 220 223 224 226 224 221 208 207 204 208 206 211 210 208 212 211 212 212